AirNav   Pilot Hours Calculator
 
 859 users online  

07Y Hill City-Quadna Mountain Airport
Hill City, Minnesota, USA

GOING TO HILL CITY?


FAA INFORMATION EFFECTIVE 31 DECEMBER 2020

Location

FAA Identifier: 07Y
Lat/Long: 46-57-21.2220N 093-35-50.7940W
46-57.353700N 093-35.846567W
46.9558950,-93.5974428
(estimated)
Elevation: 1289 ft. / 393 m (estimated)
Variation: 03E (1985)
From city: 2 miles S of HILL CITY, MN
Time zone: UTC -6 (UTC -5 during Daylight Saving Time)
Zip code: 55748

Airport Operations

Airport use: Open to the public
Activation date: 03/1974
Control tower: no
ARTCC: MINNEAPOLIS CENTER
FSS: PRINCETON FLIGHT SERVICE STATION
NOTAMs facility: PNM (NOTAM-D service available)
Attendance: UNATNDD
Wind indicator: yes, WINDSOCK NOT LIT
Segmented circle: no

Airport Communications

CTAF: 122.9
WX AWOS-3PT at GPZ (16 nm N): 118.425 (218-326-8337)

Nearby radio navigation aids

VOR radial/distance  VOR name  Freq  Var
GPZr194/13.2GRAND RAPIDS VOR/DME111.4006E

 
NDB name  Hdg/Dist  Freq  Var  ID
GALEX202/11.527202EGP --. .--.
AITKIN007/24.739700EAIT .- .. -
LONGVILLE092/25.039203EXVG -..- ...- --.
PINE RIVER064/35.133003EPWC .--. .-- -.-.

Airport Services

Parking: tiedowns

Runway Information

Runway 16/34

Dimensions: 2902 x 150 ft. / 885 x 46 m
Surface: turf, in good condition
Runway edge markings: 16/34 MKD WITH YELLOW CONES.
RUNWAY 16  RUNWAY 34
Latitude: 46-57.579355N46-57.128043N
Longitude: 093-35.960550W093-35.732597W
Elevation: 1279.1 ft.1281.4 ft.
Traffic pattern: rightleft
Markings: , in good condition, in good condition
Runway end identifier lights: nono
Obstructions: 47 ft. trees, 791 ft. from runway, 119 ft. right of centerline, 16:1 slope to clearnone

Airport Ownership and Management from official FAA records

Ownership: Publicly-owned
Owner: CITY OF HILL CITY
125 LAKE AVE, BOX 160
HILL CITY, MN 55748
Phone 218-697-2301
Manager: GEORGE CASPER
125 LAKE AVE, BOX 160
HILL CITY, MN 55748
Phone (218) 244-0440

Airport Operational Statistics

Aircraft based on the field: 3
Single engine airplanes: 3
    
Aircraft operations: avg 83/month *
50% transient general aviation
50% local general aviation
* for 12-month period ending 31 July 2019

Additional Remarks

ARPT CLSD SS-SR.
FOR CD CTC MINNEAPOLIS ARTCC AT 651-463-5588.
ARPT CLSD WINT MONTHS.

Instrument Procedures

There are no published instrument procedures at 07Y.

Some nearby airports with instrument procedures:

KGPZ - Grand Rapids/Itasca County Airport-Gordon Newstrom Field (16 nm N)
KHZX - Isedor Iverson Airport (23 nm SE)
KAIT - Aitkin Municipal Airport-Steve Kurtz Field (25 nm S)
KXVG - Longville Municipal Airport (25 nm W)
KPWC - Pine River Regional Airport (35 nm SW)
 
Loc | Ops | Rwys | IFR | FBO | Links
Com | Nav | Svcs | Stats | Notes
Area around 07Y (Hill City-Quadna Mountain Airport)
 
Road maps at: MapQuest Bing Google
 
Aerial photo
WARNING: Photo may not be current or correct
Aerial photo of 07Y (Hill City-Quadna Mountain Airport)
Photo by Ed Wells
Photo taken 10-Oct-2010
looking north.

Do you have a better or more recent aerial photo of Hill City-Quadna Mountain Airport that you would like to share? If so, please send us your photo.

 
Sectional chart

 
Airport distance calculator
Flying to Hill City-Quadna Mountain Airport? Find the distance to fly.

From to 07Y

Sunrise and sunset
Times for 19-Jan-2021
 Local
(UTC-6)
 Zulu
(UTC)
Morning civil twilight07:2013:20
Sunrise07:5413:54
Sunset16:5722:57
Evening civil twilight17:3023:30

Current date and time
Zulu (UTC)  19-Jan-2021 13:21:58
Local (UTC-6)  19-Jan-2021 07:21:58
 
METAR
KGPZ 
16nm N 
191256Z AUTO 33008KT 10SM OVC008 M17/M18 A3009 RMK AO2 SNE29 SLP227 P0000 T11671183 FZRANO
KHZX 
23nm SE 
191255Z AUTO 32004KT 10SM OVC009 M15/M16 A3007 RMK AO2
KXVG 
25nm W 
191253Z AUTO 00000KT 10SM OVC006 M18/M19 A3008 RMK AO2
KAIT 
26nm S 
191255Z AUTO 00000KT 10SM OVC060 M16/M19 A3008 RMK AO2
TAF
KBRD 
40nm SW 
191138Z 1912/2012 00000KT P6SM OVC060 FM191500 VRB03KT P6SM VCSH OVC045 FM191800 33006KT P6SM OVC027 FM200000 VRB04KT P6SM SCT040 FM200800 20010KT P6SM BKN040
KHIB 
40nm NE 
191138Z 1912/2012 34005KT 3SM -SN BR OVC007 TEMPO 1912/1914 1SM -SN BR BKN007 OVC015 FM191500 34005KT P6SM BKN045 FM191900 32007KT P6SM BKN027 FM192200 31007KT P6SM SCT040 FM200200 VRB05KT P6SM BKN040 FM200900 20007KT P6SM BKN024
NOTAMs
Click for the latest NOTAMs
NOTAMs are issued by the DoD/FAA and will open in a separate window not controlled by AirNav.

 

 
 

Would you like to see your business listed on this page?

 If your business provides an interesting product or service to pilots, flight crews, aircraft, or users of the Hill City-Quadna Mountain Airport, you should consider listing it here.  To start the listing process, click on the button below
 
Add a business
 

Other Pages about Hill City-Quadna Mountain Airport

Update a link
 
Copyright © AirNav, LLC. All rights reserved. Privacy Policy  Contact